Flag for U.S.A. Weather past 2 weeks in Fort Worth, Texas, U.S.A.

Now
36 °F

Overcast.


Feels Like: 27 °F
Forecast: 23 / 30 °F
Wind: 15 mph from North

Location: Meacham International Airport

Current Time: Feb 26, 2015 at 6:34:44 PM

Latest Report: Feb 26, 2015 at 5:53 PM


Visibility: 10 mi

Pressure: 30.33 "Hg

Humidity: 48%

Dew point: 18 °F

Location of Fort WorthLocation

Historic Weather in Fort Worth — Graph

°F

Fort Worth temperature yesterday

Maximum temperature yesterday: 54 °F (at 4:53 PM)
Minimum temperature yesterday: 33 °F (at 4:00 AM)
Average temperature yesterday: 41 °F

Past Weeks' High & Low Weather Summary

 TemperatureHumidityPressure
High78 °F (Feb 14, 2:53 PM)96% (Feb 25, 6:04 AM)30.59 "Hg (Feb 25, 6:04 AM)
Low26 °F (Feb 23, 6:53 AM)23% (Feb 14, 4:53 PM)29.65 "Hg (Feb 20, 5:53 PM)
Average46 °F67%30.16 "Hg
* Reported Feb 11 4:53 PM — Feb 26 4:53 PM, Fort Worth, Weather by CustomWeather, © 2015

Note: Actual official high and low records may vary slightly from our data, if they occured in-between our weather recording intervals... More about our weather records

Advertising

Fort Worth weather history for previous 24 hours

 ConditionsComfort  
Time TempWeatherWind HumidityBarometerVisibility
4:53 PM
Thu, Feb 26
35 °FOvercast.13 mph52%30.33 "Hg10 mi
3:53 PM35 °FOvercast.17 mph52%30.31 "Hg10 mi
2:53 PM36 °FOvercast.17 mph54%30.30 "Hg10 mi
1:53 PM37 °FOvercast.15 mph54%30.29 "Hg10 mi
12:53 PM35 °FOvercast.20 mph56%30.32 "Hg10 mi
11:53 AM34 °FOvercast.16 mph61%30.32 "Hg10 mi
10:53 AM33 °FMostly cloudy.22 mph61%30.30 "Hg10 mi
9:53 AM33 °FMostly cloudy.25 mph66%30.29 "Hg9 mi
8:53 AM33 °FMore clouds than sun.24 mph70%30.26 "Hg6 mi
7:53 AM33 °FCloudy.25 mph70%30.21 "Hg10 mi
6:53 AM36 °FOvercast.16 mph75%30.13 "Hg10 mi
5:53 AM39 °FOvercast.20 mph82%30.07 "Hg8 mi
4:53 AM38 °FFog.13 mph86%30.03 "Hg4 mi
3:53 AM37 °FFog.10 mph89%30.00 "Hg4 mi
2:53 AM36 °FFog.5 mph89%29.96 "Hg4 mi
1:53 AM37 °FFog.6 mph86%29.94 "Hg5 mi
12:53 AM38 °FClear.6 mph83%29.92 "Hg5 mi
11:53 PM
Wed, Feb 25
38 °FFog.5 mph86%29.91 "Hg5 mi
10:53 PM41 °FClear.7 mph80%29.90 "Hg7 mi
9:53 PM43 °FClear.8 mph76%29.88 "Hg8 mi
8:53 PM46 °FClear.7 mph71%29.87 "Hg10 mi
7:53 PM48 °FClear.5 mph66%29.84 "Hg10 mi
6:53 PM49 °FClear.5 mph61%29.82 "Hg10 mi
Weather by CustomWeather, © 2015

See weather overviewHow to use our weather pages